User: anonymous   Login
Location: Chaumontel
(49.1247°N, 2.4324°E)
Time: 14:49:24
(UTC+00:00)
Language:

CZ-4C R/B - Orbit

View from above orbital plane
View from above orbital plane
View from above satellite
View from above satellite

Ground track
Ground track

The orbit data is extracted from the following two-line orbital elements,

1 39211U 13037D   23160.77356882  .00006621  00000-0  33916-3 0  9998
2 39211  98.0724 354.5471 0111157 135.5623 225.4590 15.11657728542919
Epoch (UTC): 09 June 2023 18:33:56
Eccentricity: 0.0111157
inclination: 98.0724°
perigee height: 454 km
apogee height: 608 km
right ascension of ascending node: 354.5471°
argument of perigee: 135.5623°
revolutions per day: 15.11657728
mean anomaly at epoch: 225.4590°
orbit number at epoch: 54291

The dashed part of the orbit path shows where the satellite is in the earth's shadow,  

DLR